Flag for Germany

Past Weather in Flensburg, Schleswig-Holstein, Germany — Yesterday and Last 2 Weeks

Now
64 °F

Sprinkles. Partly sunny.


Feels Like: 64 °F
Forecast: 61 / 52 °F
Wind: 20 mph from West

Location: Soenderborg Lufthavn

Current Time: Jul 5, 2020 at 1:34:58 pm

Latest Report: Jul 5, 2020 at 12:50 pm


Visibility: N/A

Pressure: 29.56 "Hg

Humidity: 88%

Dew Point: 61 °F

Location of FlensburgLocation

Past Weather in Flensburg — Graph

°F

Flensburg Temperature Yesterday

Maximum temperature yesterday: 63 °F (at 4:20 pm)
Minimum temperature yesterday: 57 °F (at 12:20 am)
Average temperature yesterday: 61 °F

High & Low Weather Summary for the Past Weeks

 TemperatureHumidityPressure
High79 °F (Jun 26, 1:20 pm)100% (Jun 21, 5:50 am)30.30 "Hg (Jun 21, 5:50 am)
Low54 °F (Jun 21, 4:20 am)44% (Jun 24, 4:20 pm)29.53 "Hg (Jul 5, 9:20 am)
Average65 °F76%29.91 "Hg
* Reported Jun 20 12:20 pm — Jul 5 12:20 pm, Flensburg. Weather by CustomWeather, © 2020

Note: Actual official high and low records may vary slightly from our data, if they occured in-between our weather recording intervals... More about our weather records

Flensburg Weather History for the Previous 24 Hours

Scroll right to see more
 ConditionsComfort  
Time TempWeatherWind HumidityBarometerVisibility
12:20 pm
Sun, Jul 5
64 °FRain. Low clouds.15 mph94%29.53 "Hg1 mi
11:50 am64 °FDrizzle. Partly sunny.16 mph94%29.53 "HgN/A
11:20 am63 °FDrizzle. Low clouds.15 mph100%29.53 "Hg2 mi
10:50 am63 °FLight rain. Partly sunny.16 mph94%29.53 "Hg2 mi
10:20 am63 °FLight rain. Low clouds.15 mph94%29.53 "Hg1 mi
9:50 am63 °FLight rain. Partly sunny.15 mph94%29.53 "Hg1 mi
9:20 am63 °FLight rain. Partly sunny.15 mph94%29.53 "Hg2 mi
8:50 am63 °FLight rain. Partly sunny.13 mph94%29.56 "Hg2 mi
8:20 am63 °FSprinkles. Partly sunny.14 mph100%29.56 "Hg2 mi
7:50 am63 °FLight rain. Fog.10 mph100%29.56 "Hg2 mi
7:20 am63 °FDrizzle. Low clouds.13 mph100%29.56 "Hg1 mi
6:50 am63 °FDrizzle. Low clouds.12 mph100%29.59 "Hg1 mi
6:20 am63 °FDrizzle. Low clouds.9 mph100%29.59 "Hg1 mi
5:50 am63 °FDrizzle. Low clouds.9 mph100%29.59 "Hg2 mi
5:20 am63 °FDrizzle. Low clouds.9 mph100%29.59 "Hg1 mi
4:50 am63 °FDrizzle. Low clouds.9 mph100%29.62 "Hg1 mi
4:20 am63 °FDrizzle. Low clouds.7 mph94%29.62 "Hg1 mi
3:50 am63 °FPassing clouds.6 mph94%29.62 "HgN/A
3:20 am63 °FSprinkles. Fog.5 mph94%29.65 "Hg3 mi
2:50 am63 °FLow clouds.5 mph94%29.65 "HgN/A
1:50 am63 °FSprinkles. Passing clouds.7 mph94%29.68 "HgN/A
1:20 am63 °FSprinkles. Passing clouds.7 mph94%29.68 "Hg4 mi
12:50 am63 °FSprinkles. Mostly cloudy.7 mph94%29.71 "Hg3 mi
12:20 am63 °FPassing clouds.8 mph94%29.71 "Hg3 mi
11:50 pm
Sat, Jul 4
63 °FSprinkles. Low clouds.8 mph94%29.71 "Hg1 mi
11:20 pm63 °FLow clouds.6 mph94%29.71 "HgN/A
10:50 pm61 °FSprinkles. Mostly cloudy.8 mph100%29.71 "Hg4 mi
10:20 pm63 °FPassing clouds.9 mph94%29.71 "HgN/A
9:50 pm63 °FSprinkles. Partly sunny.9 mph94%29.71 "Hg5 mi
9:20 pm63 °FDrizzle. Partly sunny.7 mph94%29.71 "Hg2 mi
8:50 pm63 °FDrizzle. Partly sunny.8 mph94%29.71 "Hg4 mi
8:20 pm63 °FSprinkles. Partly sunny.9 mph94%29.71 "Hg2 mi
7:50 pm63 °FPartly sunny.9 mph94%29.71 "Hg4 mi
7:20 pm63 °FLight rain. Partly sunny.10 mph94%29.71 "Hg2 mi
6:50 pm63 °FLight rain. Fog.12 mph94%29.71 "Hg2 mi
6:20 pm63 °FRain. Low clouds.12 mph94%29.71 "Hg2 mi
5:50 pm63 °FLight rain. Low clouds.12 mph94%29.71 "Hg1 mi
5:20 pm63 °FLight rain. Partly sunny.14 mph94%29.71 "Hg1 mi
4:50 pm63 °FLight rain. Low clouds.12 mph94%29.71 "Hg4 mi
4:20 pm63 °FLight rain. Partly sunny.9 mph94%29.71 "Hg1 mi
3:50 pm61 °FRain. Low clouds.12 mph100%29.71 "Hg2 mi
3:20 pm61 °FRain. Partly sunny.13 mph100%29.71 "Hg3 mi
2:50 pm61 °FRain. Partly sunny.14 mph94%29.74 "Hg2 mi
2:20 pm61 °FLight rain. Partly sunny.13 mph94%29.74 "Hg2 mi
1:50 pm61 °FDrizzle. Broken clouds.13 mph94%29.74 "Hg1 mi
1:20 pm61 °FDrizzle. Broken clouds.14 mph94%29.74 "Hg1 mi
1:08 pm61 °FDrizzle. Broken clouds.15 mph94%29.74 "Hg1 mi
Weather by CustomWeather, © 2020

See weather overview